ISS (ZARYA) 1 25544U 98067A 26162.51298015 .00008593 00000+0 16294-3 0 9997 2 25544 51.6332 328.1749 0005119 173.4651 186.6405 15.49175527570872 POISK 1 36086U 09060A 26162.51298015 .00008593 00000+0 16294-3 0 9995 2 36086 51.6332 328.1749 0005119 173.4651 186.6405 15.49175527570763 CSS (TIANHE) 1 48274U 21035A 26162.53781054 .00016554 00000+0 19807-3 0 9994 2 48274 41.4693 356.3769 0008209 31.5834 328.5496 15.60566891292283 ISS (NAUKA) 1 49044U 21066A 26162.51298015 .00008593 00000+0 16294-3 0 9993 2 49044 51.6332 328.1749 0005119 173.4651 186.6405 15.49175527570761 FREGAT DEB 1 49271U 11037PF 26151.14915702 .00018955 00000+0 30994-1 0 9992 2 49271 51.6227 53.0895 0914379 245.3590 104.9405 12.41880577222933 CSS (WENTIAN) 1 53239U 22085A 26162.53781054 .00016554 00000+0 19807-3 0 9997 2 53239 41.4693 356.3769 0008209 31.5834 328.5496 15.60566891288230 CSS (MENGTIAN) 1 54216U 22143A 26162.53781054 .00016554 00000+0 19807-3 0 9998 2 54216 41.4693 356.3769 0008209 31.5834 328.5496 15.60566891292848 HRC MONOBLOCK CAMERA 1 66052U 98067XR 26162.61305442 .00074995 00000+0 53357-3 0 9990 2 66052 51.6255 307.7905 0001021 242.3495 117.7400 15.73179134 37123 SZ-21 MODULE 1 66515U 25246C 26162.19643143 .00041640 00000+0 26187-3 0 9991 2 66515 41.4739 344.6241 0007105 312.3917 47.6325 15.75880017 32796 SOYUZ-MS 28 1 66664U 25275A 26162.51298015 .00008593 00000+0 16294-3 0 9996 2 66664 51.6332 328.1749 0005119 173.4651 186.6405 15.49175527570768 DUPLEX 1 66906U 98067XS 26162.61560834 .00035570 00000+0 40082-3 0 9993 2 66906 51.6275 317.6003 0003818 180.4195 179.6797 15.62179168 29781 ISS OBJECT XY 1 66912U 98067XY 26162.59165201 .00392442 71283-4 10539-2 0 9999 2 66912 51.6192 303.7889 0008936 297.1866 62.8230 15.93791885 29955 KNACKSAT-2 1 67683U 98067XZ 26162.00743511 .00045581 00000+0 56748-3 0 9993 2 67683 51.6304 325.5501 0009943 187.9343 172.1494 15.59412992 19311 CORAL 1 67684U 98067YA 26162.61559584 .00182743 00000+0 12009-2 0 9999 2 67684 51.6235 316.8213 0009167 221.7490 138.2811 15.74564544 19488 GXIBA-1 1 67685U 98067YB 26161.18352720 .00056524 00000+0 66427-3 0 9995 2 67685 51.6292 329.0452 0011245 182.5331 177.5607 15.60815048 19191 UITMSAT-2 1 67686U 98067YC 26161.65664933 .00067628 00000+0 70523-3 0 9999 2 67686 51.6282 325.4528 0006837 175.6656 184.4399 15.63863602 19286 LEOPARD 1 67687U 98067YD 26162.16752119 .00048175 00000+0 57870-3 0 9997 2 67687 51.6310 324.3776 0007233 168.9572 191.1582 15.60355538 19263 HMU-SAT2 1 67688U 98067YE 26161.64001691 .00056298 00000+0 62243-3 0 9997 2 67688 51.6298 326.1003 0006967 170.9243 189.1878 15.62444427 19198 CREW DRAGON 12 1 67796U 26031A 26162.51298015 .00008593 00000+0 16294-3 0 9994 2 67796 51.6332 328.1749 0005119 173.4651 186.6405 15.49175527570989 PROGRESS-MS 33 1 68319U 26058A 26162.51298015 .00008593 00000+0 16294-3 0 9995 2 68319 51.6332 328.1749 0005119 173.4651 186.6405 15.49175527570767 CYGNUS NG-24 1 68689U 26079A 26162.51298015 .00008593 00000+0 16294-3 0 9998 2 68689 51.6332 328.1749 0005119 173.4651 186.6405 15.49175527570981 PROGRESS-MS 34 1 68837U 26093A 26162.51298015 .00008593 00000+0 16294-3 0 9999 2 68837 51.6332 328.1749 0005119 173.4651 186.6405 15.49175527570986 TIANZHOU-10 1 69049U 26102A 26162.53781054 .00016554 00000+0 19807-3 0 9997 2 69049 41.4693 356.3769 0008209 31.5834 328.5496 15.60566891 4940 DRAGON CRS-34 1 69103U 26107A 26162.51298015 .00008593 00000+0 16294-3 0 9992 2 69103 51.6332 328.1749 0005119 173.4651 186.6405 15.49175527570769 SHENZHOU-23 (SZ-23) 1 69180U 26113A 26162.53781054 .00016554 00000+0 19807-3 0 9995 2 69180 41.4693 356.3769 0008209 31.5834 328.5496 15.60566891292574